Weather in San Juan del Sur

Nicaragua     11°15′14″N   85°52′10″W
temp.,
°C
wind,
m/s
gust,
m/s
humid.,
%
clouds,
%
prec.,
mm/h
press.,
hPa
HPBL,
m
1 march, mon
mon100:00+25ene11167769 0.1 10111158
03:00+24ene10158090 0.0 10091099
06:00+24ene11177991 0.1 10101179
09:00+27ene11166975 0.1 10111274
12:00+30ene11155541 0.2 10091389
15:00+31ene1014517 0.0 10071394
18:00+28ene1014633 0.0 10091157
21:00+25ene1116730 0.0 10111084
2 march, tue
tue200:00+25ene1116770 0.0 10111049
03:00+25ene1015781 0.0 10101077
06:00+24ene10158114 0.1 10101103
09:00+27ene12166974 0.0 10121242
12:00+30ene10145671 0.0 10101431
15:00+31ene10144622 0.0 10081494
18:00+27ene12166860 0.0 10091107
21:00+25ene111673100 0.0 10121140
3 march, wed
wed300:00+25ene10157291 0.0 10121212
03:00+24ene914745 0.0 10111139
06:00+25ene9147223 0.0 10121143
09:00+27ene10146430 0.0 10141247
12:00+30ene9134916 0.0 10121290
15:00+31ene812400 0.0 10091412
18:00+28ene813510 0.0 1010931
21:00+26e1014670 0.0 1012996
4 march, thu
thu400:00+24ene913790 0.0 10131011
03:00+24ene913812 0.0 1012974
06:00+24ene9138017 0.0 10131010
09:00+26ene10146840 0.0 10151133
12:00+30ene8135121 0.0 10121449
15:00+31ene812450 0.0 10091608
18:00+28ene913500 0.0 1010838
21:00+26e914700 0.0 1012992
5 march, fri
fri500:00+24e915696 0.0 1012907
03:00+23ene1015753 0.0 1011945
06:00+23ene914743 0.0 1012859
09:00+25ene913640 0.0 1013913
12:00+29ene912450 0.0 10111079
15:00+30ene710380 0.0 10081014
18:00+27e510630 0.0 1009608
21:00+26e812700 0.0 1011729